Regional Weather Roundup
Issued by NWS

Home | Current Version | Previous Version | Graphics & Text | Print | Product List | Glossary On
Versions: 1 2 3 4 5 6 7 8 9 10 11 12 13 14 15 16 17 18 19 20 21 22 23 24 25 26 27 28 29 30 31 32 33 34 35 36 37 38 39 40 41 42 43 44 45 46 47 48 49 50
187
ASUS44 KJAN 151810
RWRMS

MISSISSIPPI HOURLY WEATHER ROUNDUP
NATIONAL WEATHER SERVICE JACKSON MS
100 PM CDT TUE APR 15 2014

NOTE: "FAIR: INDICATES FEW OR NO CLOUDS BELOW 12,000 FEET WITH NO
SIGNIFICANT WEATHER AND/OR OBSTRUCTIONS TO VISIBILITY.

MSZ001>002-007>008-010>013-018>021-025>028-034>036-151900-
NORTHWEST MISSISSIPPI

CITY           SKY/WX    TMP DP  RH WIND       PRES   REMARKS
CLARKSDALE       N/A     48  30  49 N18       30.26F
CLEVELAND      FAIR      48  33  57 N20       30.25F
GREENWOOD      SUNNY     49  27  42 N14G24    30.24S
6HR MIN TEMP:  40; 6HR MAX TEMP:  49;

GREENVILLE     SUNNY     50  31  48 N21G29    30.24F
6HR MIN TEMP:  40; 6HR MAX TEMP:  50;

GRENADA        FAIR      48  25  40 N14G24    30.23S
OLIVE BRANCH   SUNNY     45  23  42 NW16G24   30.24S
OXFORD         FAIR      46  18  31 N9G18     30.22F
TUNICA         CLEAR     46  30  53 N13G23    30.26F
$$

MSZ003>006-009-014>017-022>024-029>033-037>039-151900-
NORTHEAST MISSISSIPPI

CITY           SKY/WX    TMP DP  RH WIND       PRES   REMARKS
BELMONT        FAIR      47  23  38 NW14G20   30.14F
COLUMBUS AFB   SUNNY     49  26  39 NW20G28   30.16S
6HR MIN TEMP:  39; 6HR MAX TEMP:  49; 6HR PCP: TRACE;

CORINTH        FAIR      46  23  39 NW13G24   30.18S
GOLDN TRIANGLE MOSUNNY   50  30  46 N17G24    30.19R
STARKVILLE     FAIR      46  27  46 NW10G20   30.17S
TUPELO         SUNNY     48  22  35 N22G35    30.17F
6HR MIN TEMP:  39; 6HR MAX TEMP:  49;

$$

MSZ040-058-151900-
CENTRAL MISSISSIPPI

CITY           SKY/WX    TMP DP  RH WIND       PRES   REMARKS
JACKSON INTL   SUNNY     52  28  39 NW16G28   30.20F
6HR MIN TEMP:  42; 6HR MAX TEMP:  52;

JACKSON HAWKNS SUNNY     50  25  37 N15G26    30.21S
6HR MIN TEMP:  41; 6HR MAX TEMP:  52; 6HR PCP: TRACE;

MERIDIAN KEY   SUNNY     52  30  43 NW22G29   30.14R
6HR MIN TEMP:  40; 6HR MAX TEMP:  53; 6HR PCP: TRACE;

MERIDIAN NAS   MOSUNNY   52  28  39 N18G24    30.15R
6HR MIN TEMP:  41; 6HR MAX TEMP:  52; 6HR PCP: TRACE;

RAYMOND        FAIR      50  45  81 N10G24    30.21F
VICKSBURG      SUNNY     50  28  42 N17G35    30.25F
6HR MIN TEMP:  44; 6HR MAX TEMP:  51;

$$

MSZ059>079-151900-
SOUTH MISSISSIPPI

CITY           SKY/WX    TMP DP  RH WIND       PRES   REMARKS
BROOKHAVEN     FAIR      52  30  43 NW18G24   30.18F
COLUMBIA       FAIR      54  28  37 MISG      30.13F
HATTIESBURG    SUNNY     55  32  41 N18G28    30.14F
6HR MIN TEMP:  44; 6HR MAX TEMP:  55; 6HR PCP: TRACE;

MCCOMB         SUNNY     54  25  32 N17G26    30.14F
6HR MIN TEMP:  42; 6HR MAX TEMP:  54;

NATCHEZ        NOT AVBL
PINE BELT      SUNNY     54  28  37 NW17G26   30.14F
6HR MIN TEMP:  43; 6HR MAX TEMP:  54;

$$

MSZ080>082-151900-
COASTAL MISSISSIPPI

CITY           SKY/WX    TMP DP  RH WIND       PRES   REMARKS
BAY ST LOUIS   SUNNY     55  36  47 N23G31    30.10F
BILOXI         MOSUNNY   54  39  56 N18G26    30.08F
6HR MIN TEMP:  47; 6HR MAX TEMP:  54;

PASCAGOULA     PTSUNNY   53  39  59 N21G31    30.08F
6HR MIN TEMP:  47; 6HR MAX TEMP:  53;

GULFPORT       SUNNY     58  36  43 N22G31    30.08F
6HR MIN TEMP:  49; 6HR MAX TEMP:  58;

$$



USA.gov is the U.S. government's official web portal to all federal, state and local government web resources and services.